FENGYUN 1C DEB, 30251

Orbit data source: Space-Track

FENGYUN 1C DEB, 30251 is space debris in SSO originally from a launch on Mon, 10 May 1999 UTC launched from the Taiyaun Space Center, China (TSC). Fengyun 1C debris stems from the Chinese weather satellite Fengyun-1C, which was intentionally destroyed by a Chinese anti-satellite missile in 2007. This event dramatically increased the amount of space debris, with thousands of trackable fragments posing hazards to satellites and human spaceflight. The Fengyun 1C debris cloud has become a focal point in discussions about space sustainability and the need for international regulations to prevent the creation of new debris.

Loading next visibility...
Identifier
30251, 1999-025XL
Orbit
SSO
Country
Flag of CNCN / PRC
Related business
Manufacturer
Unknown
Mission
Spacecraft
Bus & Motor
Unknown
Mass
Unknown
Launch date (UTC)
1999-05-10 (27 years ago)
Launch vehicle
Unknown
Launch site
Taiyaun Space Center, China (TSC)
Object type
Payload
Rocket body
Debris
Shape & HBR
Unknown shape, 0.1 m
Radar Cross Section
Medium (>0.1 m² and <1 m²)

Expand to show TLE details & history
Last TLE update: 15 hours ago

TLE from 15 hours ago
0 FENGYUN 1C DEB
1 30251U 99025XL  26238.19945045  .00000653  00000-0  26875-3 0  9999
2 30251  99.0293  91.2143 0050774 307.5886 172.5883 14.29841521 18061
Epoch: 2026-08-26T04:47Z
TLE epoch observation values (Epoch: 2026-08-26T04:47:12.518Z)
Latitude
58.65069°
Longitude
-120.00477°
Altitude
838.248 km
Speed
7.421 km/s
True Right ascension
19h 05m 00s
True Declination
58° 29' 58"
Sunlit
Object was in daylight at epoch
Visualization orbit readout
Latitude
Unknown
Longitude
Unknown
Altitude
Unknown
Speed
Unknown
Apparent Right ascension
Unknown
Apparent Declination
Unknown
Sunlit
N/A
Visualization observer readout
Local Sidereal Time
11:14:38
Azimuth
Unknown
Elevation
Unknown
Doppler factor
Unknown
Orbital elements
Apogee altitude
825.814 km
Perigee altitude
753.029 km
Semi-major axis
7,167.559 km
Eccentricity
0.00508
Inclination
99.0293°
RAAN
91.2143°
Arg. of periapsis
307.5886°
True anomaly
172.66289°
Mean anomaly
172.5883°
Eccentric anomaly
172.62564°
Mean motion
3.57673 °/min
Orbital period
100.65 mins
BSTAR
0.00026875
Loading maneuver chart data...
Computing Atmospheric mass density...

Documentation

Showing up to 5 results
|